Вернуться в каталог

FENGYUN 1C DEB

АктивенPO
NORAD 31036·DEBRIS·🇨🇳 China

Запущен May 10, 1999 с Taiyuan Satellite Launch Center

Loading…

Ближайшие Пролёты (ближайшие 24 часа)

TLE

СвежийSource: Space-Track

Эпоха: Sep 14, 2026, 14:31 UTC

1 31036U 99025BEE 26257.60502497  .00000591  00000-0  14962-3 0  9993
2 31036  98.9410  25.0409 0138060 155.7542 270.2272 14.49521012613037

Отслеживайте FENGYUN 1C DEB в реальном времени с AllMySat

Download on the App Store